Location: Sandhurst
(51.3333°N, 0.8000°W)
Time: 08:48:01
(UTC+00:00)

Daily predictions for brighter satellites

Satellite Brightness Start Highest point End
(mag) Time Altitude Azimuth Time Altitude Azimuth Time Altitude Azimuth
STARLINK-1233 3.9 20:50:12 10° W 20:54:20 74° N 20:58:30 10° ENE
STARLINK-1112 3.7 20:50:50 10° WNW 20:54:59 68° SSW 20:59:05 10° ESE
STARLINK-1143 3.6 20:52:31 10° WSW 20:56:37 65° SSE 21:00:44 10° ENE
Aureole 2 4.2 20:54:09 10° NNW 20:57:23 72° ENE 21:00:20 10° SSE
STARLINK-1209 3.4 20:55:03 10° WNW 20:58:20 66° N 21:01:38 10° E
STARLINK-1204 3.9 20:55:11 10° W 20:59:20 73° N 21:03:29 10° ENE
STARLINK-1128 3.7 20:55:49 10° WNW 20:59:57 65° SSW 21:04:02 10° SE
STARLINK-1241 3.6 20:57:30 10° WSW 21:01:37 69° SSE 21:05:45 10° ENE
deb Kosmos-1763 4.0 20:59:26 10° NNW 21:03:03 88° WSW 21:06:39 10° SSE
Cosmos 1300 Rocket 4.3 20:58:44 10° NNW 21:03:05 53° W 21:07:23 10° S
STARLINK-1238 3.9 21:00:12 10° W 21:04:21 72° N 21:08:30 10° ENE
STARLINK-1113 3.8 21:00:49 10° WNW 21:04:54 61° SSW 21:09:00 10° SE
Aureole 2 Rocket 2.4 21:02:38 10° S 21:05:35 44° ESE 21:08:27 10° NE
Cosmos 1733 4.4 21:02:45 10° N 21:06:05 28° ENE 21:09:25 10° SE
STARLINK-1239 3.6 21:02:27 10° WSW 21:06:35 72° SSE 21:10:44 10° ENE
STARLINK-1201 3.9 21:05:11 10° W 21:09:20 71° N 21:13:29 10° E
STARLINK-1119 3.8 21:05:49 10° WNW 21:09:54 58° SSW 21:13:59 10° SE
Cosmos 1437 Rocket 2.6 21:06:56 10° S 21:10:43 84° E 21:14:35 10° NNE
STARLINK-1240 3.6 21:07:24 10° WSW 21:11:33 75° SSE 21:15:41 10° ENE
Cosmos 1378 3.9 21:10:00 10° SSE 21:13:22 34° E 21:16:45 10° NNE
ISS -1.3 21:12:52 10° WSW 21:14:18 12° SW 21:15:43 10° SSW
STARLINK-1206 4.0 21:10:11 10° W 21:14:20 70° N 21:18:29 10° E
STARLINK-1114 3.9 21:10:47 10° WNW 21:14:51 55° SSW 21:18:49 10° SE
Meteor 1-15 Rocket 4.4 21:09:18 10° NNW 21:15:17 88° W 21:21:13 10° S
STARLINK-1203 3.6 21:12:12 10° WSW 21:16:25 79° SSE 21:20:38 10° ENE
STARLINK-1216 3.6 21:12:21 10° WSW 21:16:31 79° SSE 21:20:40 10° ENE
Lacrosse 5 3.6 21:13:22 10° WNW 21:17:10 21° SW 21:20:56 10° S
Cosmos 304 Rocket 3.8 21:12:32 10° SSW 21:17:16 67° ESE 21:22:03 10° NNE
USA 215 3.9 21:11:12 10° E 21:17:35 57° N 21:23:57 10° WNW
NOSS 8 (E) 4.0 21:15:17 10° SW 21:18:25 79° SE 21:21:30 10° NE
STARLINK-1205 4.0 21:15:10 10° W 21:19:18 69° N 21:23:27 10° E
STARLINK-1130 (DARKSAT) 4.0 21:15:47 10° WNW 21:19:49 52° SSW 21:23:37 11° SE
STARLINK-1237 3.6 21:17:20 10° WSW 21:21:29 82° SSE 21:25:39 10° ENE
CENTAUR R/B 3.5 21:14:02 10° NW 21:21:43 64° NE 21:30:20 10° ESE
NOSS 2-2 (D) 3.8 21:18:26 10° S 21:21:44 35° ESE 21:25:24 10° ENE
Cosmos 1092 Rocket 4.4 21:16:01 10° SSE 21:21:45 44° E 21:27:32 10° NNE
CZ-2C R/B 4.2 21:17:24 10° N 21:22:37 41° WNW 21:27:50 10° SW
STARLINK-1218 4.0 21:20:10 10° W 21:24:19 69° N 21:28:28 10° E
STARLINK-1084 4.0 21:20:46 10° WNW 21:24:47 49° SSW 21:28:24 12° SE
ATLAS 3B R/B 3.7 21:18:33 10° NW 21:24:53 41° NNE 21:31:23 10° E
Cosmos 1674 Rocket 3.7 21:21:32 10° SSW 21:25:55 81° W 21:30:22 10° N
SL-27 R/B 3.4 21:23:04 10° N 21:26:28 38° ENE 21:29:28 12° SE
STARLINK-1202 3.6 21:22:19 10° WSW 21:26:28 85° SSE 21:30:38 10° ENE
NOSS 3-2 (C) 4.2 21:19:49 10° NW 21:27:05 71° NE 21:35:21 10° SE
Cosmos 1378 Rocket 3.5 21:24:24 10° S 21:28:48 84° E 21:33:12 10° NNE
Cosmos 1766 3.5 21:25:17 10° N 21:29:14 62° ENE 21:32:47 13° SSE
STARLINK-1254 4.0 21:25:09 10° W 21:29:18 68° N 21:33:27 10° E
STARLINK-1098 4.1 21:25:46 10° WNW 21:29:45 46° SSW 21:33:11 13° SE
STARLINK-1231 4.0 21:30:08 10° W 21:34:17 68° N 21:38:25 10° E
STARLINK-1123 4.2 21:30:45 10° WNW 21:34:41 43° SSW 21:37:56 14° SE
STARLINK-1246 3.6 21:32:17 10° WSW 21:36:27 89° N 21:40:37 10° ENE
Cosmos 1900 4.5 21:31:34 10° NW 21:36:36 74° SW 21:41:01 14° SSE
IGS 5A 4.3 21:32:41 10° S 21:36:41 46° W 21:40:44 10° NNW
Cosmos 1943 Rocket 2.6 21:32:56 10° S 21:38:08 43° ESE 21:43:24 10° NE
Cosmos 2297 3.7 21:32:28 10° SSW 21:38:10 84° ESE 21:43:56 10° NNE
NOSS 2-2 (E) 3.2 21:35:21 10° SSW 21:38:54 63° SE 21:43:04 10° NE
STARLINK-1232 4.0 21:35:09 10° W 21:39:17 68° N 21:43:26 10° E
STARLINK-1097 4.3 21:35:46 10° WNW 21:39:40 41° SSW 21:42:45 15° SSE
STARLINK-1224 3.6 21:37:15 10° WSW 21:41:25 87° NNW 21:45:35 10° ENE
Cosmos 2082 Rocket 3.9 21:36:47 10° NW 21:41:28 27° WSW 21:46:07 10° SSW
SeaSat 1 4.2 21:40:04 10° ENE 21:42:42 14° ESE 21:44:35 12° SE
SAR-Lupe-2 4.3 21:40:30 10° N 21:44:02 55° WNW 21:47:33 10° SSW
STARLINK-1208 4.0 21:40:07 10° W 21:44:15 68° N 21:48:24 10° E
STARLINK-1099 4.4 21:40:45 10° WNW 21:44:37 38° SSW 21:47:31 16° SSE
Cosmos 1461 3.2 21:41:54 10° SW 21:46:06 73° NW 21:50:32 10° NE
STARLINK-1225 3.7 21:42:15 10° WSW 21:46:24 84° NNW 21:50:35 10° ENE
STARLINK-1212 2.9 21:44:27 10° WNW 21:47:33 78° NNE 21:50:41 10° E
STARLINK-1105 2.9 21:44:55 10° WNW 21:48:02 79° NNE 21:51:08 10° E
Cosmos 1975 Rocket 3.4 21:44:36 13° SSE 21:48:21 50° E 21:52:37 10° NNE
STARLINK-1247 2.9 21:45:47 10° WNW 21:48:55 79° NNE 21:52:03 10° ESE
STARLINK-1271 3.9 21:45:08 10° W 21:49:17 69° N 21:53:25 10° E
STARLINK-1227 2.9 21:46:17 10° WNW 21:49:24 79° NNE 21:52:31 10° ESE
Meteor 1-23 Rocket 4.5 21:43:48 10° SSW 21:49:29 73° WNW 21:55:08 10° N
STARLINK-1104 4.5 21:45:45 10° W 21:49:33 36° SW 21:52:18 17° SSE
BREEZE-M DEB (TANK) 4.0 21:33:32 10° WSW 21:50:06 57° SSE 21:54:23 10° E
STARLINK-1226 2.9 21:47:08 10° WNW 21:50:16 80° NNE 21:53:24 10° ESE
BREEZE-M DEB (TANK) 2.9 21:46:33 10° W 21:51:03 70° S 21:54:35 10° E
STARLINK-1215 2.9 21:48:02 10° WNW 21:51:10 81° NNE 21:54:16 10° ESE
STARLINK-1230 3.7 21:47:13 10° WSW 21:51:23 82° NNW 21:55:33 10° ENE
STARLINK-1217 2.9 21:49:51 10° WNW 21:52:59 82° NNE 21:56:00 11° ESE
STARLINK-1229 2.9 21:50:46 10° WNW 21:53:54 82° NNE 21:56:53 11° ESE
STARLINK-1154 3.9 21:50:07 10° W 21:54:16 69° N 21:58:24 10° E
Cosmos 2369 Rocket 2.7 21:49:04 10° S 21:54:19 42° ESE 21:59:36 10° NE
STARLINK-1270 2.9 21:51:39 10° WNW 21:54:47 83° NNE 21:57:45 11° ESE
STARLINK-1243 3.7 21:52:13 10° W 21:56:23 80° NNW 22:00:33 10° ENE
STARLINK-1189 2.9 21:53:27 10° WNW 21:56:35 84° NNE 21:59:29 12° ESE
STARLINK-1188 2.8 21:54:22 10° WNW 21:57:30 85° NNE 22:00:22 12° ESE
SPOT 5 3.4 21:53:31 12° S 21:58:26 64° WSW 22:03:48 10° NNW
STARLINK-1187 2.8 21:55:28 10° WNW 21:58:35 90° NE 22:01:13 13° ESE
STARLINK-1197 3.9 21:55:05 10° W 21:59:14 70° N 22:03:22 10° E
STARLINK-1191 2.8 21:56:49 10° WNW 21:59:55 86° NNE 22:02:39 13° ESE
ATLAS CENTAUR R/B 3.3 21:59:35 13° ESE 22:00:03 13° ESE 22:02:03 10° E
STARLINK-1221 2.8 21:57:46 10° WNW 22:00:52 87° NNE 22:03:35 13° ESE
STARLINK-1236 3.8 21:57:12 10° W 22:01:21 78° NNW 22:05:31 10° ENE
STARLINK-1222 2.8 21:58:36 10° WNW 22:01:43 88° N 22:04:23 13° ESE
STARLINK-1214 2.8 21:59:30 10° WNW 22:02:38 88° NNE 22:05:16 14° ESE
NOSS 2-2 (C) 3.1 21:59:55 10° SW 22:03:30 83° SE 22:07:41 10° NE
Meteor 1-22 Rocket 4.4 21:58:14 10° NNW 22:04:10 75° W 22:09:05 14° S
STARLINK-1198 3.9 22:00:04 10° W 22:04:13 71° N 22:08:22 10° E
EXPRESS MD2 3.9 22:00:41 10° WSW 22:04:17 61° SSE 22:11:32 10° E
ERS-1 Rocket 3.7 21:59:40 10° S 22:04:28 48° W 22:09:22 10° NNW
Cosmos 1025 Rocket 4.2 22:02:58 17° SE 22:05:20 27° E 22:09:00 10° NNE
Okean 2 3.4 22:02:00 13° S 22:05:39 81° E 22:09:50 10° NNE
Cosmos 2026 Rocket 4.1 22:00:23 12° S 22:06:07 68° E 22:12:27 10° NNE
BREEZE M DEB (TANK) 2.4 22:02:54 10° WSW 22:06:45 44° S 22:08:33 13° E
Cosmos 1553 Rocket 4.3 22:00:42 10° N 22:06:56 58° ENE 22:11:43 17° SSE
ATLAS 2AS CENTAUR R/B 3.6 22:00:30 10° S 22:07:32 37° ESE 22:14:37 10° NE
Cosmos 1953 3.7 22:04:44 10° N 22:08:10 27° ENE 22:10:41 15° ESE
NOSS 3-2 (A) 4.2 22:01:06 10° NW 22:08:26 64° SW 22:15:11 16° SSE
STARLINK-1228 3.1 22:04:57 10° WNW 22:08:27 77° SSW 22:11:08 16° ESE
Cosmos 1805 4.2 22:05:18 10° NNW 22:09:02 43° W 22:12:24 12° SSW
STARLINK-1199 3.9 22:05:04 10° WNW 22:09:13 71° N 22:13:22 10° E
Cosmos 1470 3.1 22:05:37 10° N 22:09:26 54° ENE 22:11:51 21° SSE
STARLINK-1235 2.9 22:07:41 10° WNW 22:10:55 76° SSW 22:13:12 18° ESE
STARLINK-1269 3.8 22:07:11 10° W 22:11:20 75° N 22:15:30 10° ENE
Resurs 01 Rocket 4.5 22:11:51 10° W 22:12:46 11° W 22:13:41 10° WNW
Cosmos 968 Rocket 3.5 22:08:36 10° NNW 22:13:48 78° ENE 22:17:31 19° SSE
STARLINK-1210 3.8 22:10:03 10° WNW 22:14:12 73° N 22:18:21 10° E
STARLINK-1200 3.8 22:12:10 10° W 22:16:18 73° N 22:20:28 10° ENE
Cosmos 1455 Rocket 3.0 22:11:59 10° NNW 22:16:20 82° W 22:19:25 19° S
STARLINK-1219 3.8 22:15:02 10° WNW 22:19:11 74° N 22:23:20 10° E
USA 238 DEB 4.2 22:13:18 10° NW 22:20:16 54° SW 22:25:51 17° SSE
USA 238 4.2 22:13:24 10° NW 22:20:23 55° SW 22:25:58 18° SSE
SL-4 R/B 3.2 22:20:18 10° E 22:20:58 11° ENE 22:21:47 10° NE
STARLINK-1192 3.9 22:17:10 10° W 22:21:19 72° N 22:25:28 10° ENE
ATLAS 5 CENTAUR R/B 3.0 22:21:46 21° SE 22:21:46 21° SE 22:23:43 10° E
Cosmos 1758 3.4 22:18:53 10° N 22:22:57 67° ENE 22:25:25 23° SSE
STARLINK-1211 3.8 22:20:02 10° WNW 22:24:11 75° N 22:28:20 10° E
SL-4 R/B 2.9 22:21:15 10° SSW 22:25:35 35° SE 22:30:00 10° E
STARLINK-1244 3.9 22:22:09 10° W 22:26:17 71° N 22:30:27 10° ENE
Terra 2.6 22:23:15 14° S 22:27:03 46° W 22:31:40 10° NNW
Cosmos 1842 3.3 22:24:07 16° SSW 22:27:11 77° WNW 22:31:06 10° N
ERBS 4.4 22:24:46 10° WNW 22:27:45 30° N 22:30:46 10° ENE
STARLINK-1234 3.0 22:25:27 10° WNW 22:28:41 59° SSW 22:30:16 26° SE
Meteor 2-13 Rocket 4.4 22:23:31 14° S 22:28:55 84° E 22:35:07 10° NNE
STARLINK-1245 3.7 22:25:00 10° WNW 22:29:09 77° N 22:33:19 10° E
STARLINK-1138 3.9 22:27:09 10° W 22:31:17 70° N 22:35:26 10° E
Cosmos 1503 Rocket 4.1 22:28:36 10° NNW 22:33:57 83° ENE 22:37:35 21° SSE
STARLINK-1233 3.7 22:29:58 10° WNW 22:34:07 79° NNE 22:38:17 10° E
STARLINK-1209 3.2 22:31:37 10° WNW 22:34:51 53° SSW 22:36:13 29° SE
STARLINK-1143 3.9 22:32:07 10° W 22:36:15 70° N 22:40:24 10° E
STARLINK-1204 3.7 22:34:57 10° WNW 22:39:07 81° NNE 22:43:16 10° E
SJ 16-02 4.1 22:40:01 10° NNE 22:41:14 11° NE 22:42:26 10° NE
STARLINK-1241 3.9 22:37:09 10° W 22:41:17 69° N 22:45:26 10° E
Cosmos 2263 4.2 22:39:19 14° SSW 22:44:06 69° ESE 22:49:42 10° NE
STARLINK-1238 3.6 22:39:58 10° WNW 22:44:07 83° NNE 22:48:17 10° ESE
STARLINK-1239 3.9 22:42:07 10° W 22:46:16 69° N 22:50:24 10° E
Cosmos 1536 Rocket 3.6 22:45:44 25° S 22:48:08 62° E 22:52:28 10° NNE
STARLINK-1201 3.6 22:44:56 10° WNW 22:49:06 85° NNE 22:53:15 10° ESE
Cosmos 1674 4.3 22:48:20 18° ESE 22:49:39 22° E 22:52:37 10° NE
STARLINK-1240 3.9 22:47:06 10° W 22:51:14 68° N 22:55:23 10° E
Cosmos 1271 Rocket 2.7 22:49:29 24° S 22:51:44 89° ESE 22:55:43 10° NNE
Cosmos 1242 Rocket 2.9 22:49:25 19° SSW 22:51:52 63° WNW 22:55:33 10° N
Cosmos 1544 Rocket 4.2 22:48:53 10° NNW 22:53:04 48° W 22:55:47 20° SSW
Cosmos 1354 Rocket 4.0 22:47:57 10° NNW 22:53:16 80° WSW 22:56:35 24° SSE
STARLINK-1206 3.6 22:49:56 10° WNW 22:54:06 88° NNE 22:58:15 10° ESE
STARLINK-60 3.1 22:52:21 21° SW 22:54:10 47° SSE 22:57:16 10° ENE
Meteor 1-21 4.4 22:50:09 14° SSW 22:54:57 73° WNW 23:00:35 10° N
STARLINK-1216 3.9 22:52:04 10° W 22:56:13 68° N 23:00:21 10° E
COSMOS 2455 3.3 22:52:50 22° S 22:56:17 42° ESE 23:01:54 10° NE
STARLINK-1203 4.0 22:52:09 10° W 22:56:20 69° N 23:00:33 10° E
Spot 4 3.8 22:53:29 24° SSE 22:56:26 85° WSW 23:01:20 10° NNW
Cosmos 1833 4.4 22:52:09 10° NW 22:57:43 62° WSW 23:01:10 23° S
STARLINK-1205 3.5 22:54:54 10° WNW 22:59:04 89° S 23:03:07 11° ESE
Cosmos 2297 Rocket 3.9 22:55:21 10° NNW 23:00:14 28° NE 23:05:05 10° E
USA 215 3.3 22:53:49 10° ESE 23:00:24 89° NE 23:07:00 10° WNW
STARLINK-1237 3.9 22:57:04 10° W 23:01:13 68° N 23:05:21 10° E
SL-27 R/B 4.4 22:58:40 10° NW 23:01:21 20° W 23:03:01 15° SW
Cosmos 1707 2.7 22:59:44 26° SSW 23:01:49 87° W 23:05:45 10° N
Lacrosse 4 Rocket 4.2 23:00:56 10° N 23:03:34 15° NNE 23:06:11 10° ENE
STARLINK-1218 3.5 22:59:54 10° WNW 23:04:04 87° SSW 23:07:55 12° ESE
Helios 1A 4.1 23:01:35 18° ESE 23:04:09 36° ENE 23:08:00 10° N
Cosmos 1726 2.0 23:01:57 10° N 23:05:42 90° WSW 23:07:20 32° S
STARLINK-1202 3.9 23:02:04 10° W 23:06:12 69° N 23:10:21 10° E
Cosmos 1174 4.0 23:06:37 34° SE 23:07:13 37° ESE 23:10:44 10° NE
Timation 2 Rocket 4.3 23:01:37 10° NNW 23:07:58 63° NE 23:12:55 16° SE
STARLINK-1254 3.5 23:04:52 10° WNW 23:09:02 84° SSW 23:12:41 13° ESE
COSMOS 2487 2.3 23:05:46 10° NNW 23:09:15 79° WSW 23:10:32 36° SSE
ALOS 2 2.7 23:07:47 26° SSE 23:10:11 70° ENE 23:14:34 10° N
CENTAUR R/B 3.6 23:04:54 10° NW 23:12:34 51° WSW 23:18:18 21° S
STARLINK-1231 3.5 23:09:50 10° WNW 23:14:00 80° SSW 23:17:27 15° ESE
Meteor 1-16 Rocket 4.1 23:09:02 10° NNW 23:14:36 87° W 23:17:49 25° S
Cosmos 1867 3.9 23:10:37 10° NW 23:15:54 50° WSW 23:18:45 26° S
ATLAS 3B R/B 2.7 23:09:20 10° NW 23:16:06 77° SW 23:21:09 20° SSE
STARLINK-1246 3.9 23:12:03 10° W 23:16:12 70° N 23:20:21 10° E
EO 1 Del DPAF 3.5 23:13:34 10° N 23:17:20 63° WNW 23:19:29 23° SSW
STARLINK-1232 3.5 23:14:50 10° WNW 23:18:59 77° SSW 23:22:15 16° ESE
FALCON 9 DEB 4.3 23:20:07 26° ESE 23:20:07 26° ESE 23:22:22 10° E
Cosmos 1606 Rocket 3.8 23:15:07 10° N 23:19:25 59° ENE 23:21:36 27° SSE
Cosmos 1992 Rocket 4.1 23:16:14 17° SSW 23:20:16 79° WNW 23:25:31 10° NNE
SeaSat 1 2.4 23:15:58 10° NNE 23:20:57 79° ESE 23:24:20 21° SSW
STARLINK-1224 3.9 23:17:02 10° W 23:21:10 70° N 23:25:20 10° E
Cosmos 1943 Rocket 3.4 23:16:40 10° WSW 23:21:55 42° NW 23:27:15 10° NNE
STARLINK-1212 3.9 23:20:25 10° W 23:22:54 30° SW 23:22:54 30° SW
STARLINK-1105 3.9 23:20:53 10° W 23:23:20 30° SW 23:23:20 30° SW
STARLINK-1208 3.5 23:19:47 10° WNW 23:23:56 74° SSW 23:27:00 18° ESE
STARLINK-29 3.2 23:24:02 43° SSE 23:24:04 43° SSE 23:27:09 10° ENE
NOSS 5 (C) 4.4 23:21:10 10° NW 23:24:16 65° SW 23:25:32 36° SSE
STARLINK-1247 3.9 23:21:46 10° W 23:24:14 29° SW 23:24:14 29° SW
STARLINK-1227 3.9 23:22:15 10° W 23:24:40 29° SW 23:24:40 29° SW
STARLINK-1226 4.0 23:23:07 10° W 23:25:31 29° SW 23:25:31 29° SW
STARLINK-1225 3.9 23:22:02 10° WNW 23:26:11 71° N 23:30:20 10° E
ATLAS CENTAUR R/B 2.1 23:24:42 10° NW 23:26:33 37° NNE 23:29:27 10° E
STARLINK-1215 4.0 23:24:01 10° W 23:26:23 28° SW 23:26:23 28° SW
STARLINK-1217 4.1 23:25:50 10° W 23:28:07 27° SW 23:28:07 27° SW
STARLINK-1271 3.5 23:24:48 10° WNW 23:28:56 71° SSW 23:31:48 19° ESE
STARLINK-1229 4.1 23:26:46 10° W 23:29:01 27° SW 23:29:01 27° SW
NOSS 3-4 (A) 3.4 23:23:53 12° SW 23:29:32 81° SE 23:36:00 10° NE
NOSS 3-4 (C) 3.4 23:24:02 12° SW 23:29:38 81° SE 23:36:07 10° NE
STARLINK-1270 4.1 23:27:39 10° W 23:29:53 26° SW 23:29:53 26° SW
RESURS DK-1 3.2 23:29:48 29° SE 23:30:58 34° ESE 23:34:44 10° NE
STARLINK-1230 3.8 23:27:01 10° WNW 23:31:10 72° N 23:35:19 10° E
STARLINK-1189 4.2 23:29:29 10° W 23:31:36 25° SW 23:31:36 25° SW
Cosmos 2315 Rocket 4.0 23:26:51 10° N 23:33:05 89° ENE 23:36:58 25° S
STARLINK-1188 4.3 23:30:23 10° W 23:32:29 25° SW 23:32:29 25° SW
STARLINK-1154 3.5 23:29:47 10° WNW 23:33:55 67° SSW 23:36:35 21° SE
STARLINK-1187 4.5 23:31:34 10° W 23:33:23 21° WSW 23:33:23 21° WSW
Cosmos 2084 4.4 23:33:36 28° SSE 23:34:40 32° ESE 23:38:39 10° ENE
STARLINK-1191 4.4 23:32:51 10° W 23:34:47 23° WSW 23:34:47 23° WSW
STARLINK-1243 3.8 23:32:01 10° WNW 23:36:10 73° N 23:40:19 10° E
Cosmos 1340 Rocket 3.5 23:32:26 10° NNW 23:36:20 45° W 23:38:06 27° SSW
STARLINK-1221 4.4 23:33:49 10° W 23:35:42 23° WSW 23:35:42 23° WSW
Cosmos 1626 3.5 23:36:00 22° ESE 23:37:15 27° E 23:40:26 10° NNE
STARLINK-1222 4.4 23:34:40 10° W 23:36:30 22° WSW 23:36:30 22° WSW
Cosmos 2227 Rocket 3.4 23:32:04 10° NNW 23:37:26 40° NE 23:42:45 10° ESE
STARLINK-1214 4.5 23:35:34 10° W 23:37:23 22° WSW 23:37:23 22° WSW
Cosmos 2369 Rocket 3.3 23:32:59 10° WSW 23:38:22 43° NW 23:43:45 10° NNE
ATLAS CENTAUR R/B 1.3 23:35:42 22° SW 23:38:23 82° SE 23:42:28 10° NE
STARLINK-1197 3.6 23:34:45 10° WNW 23:38:52 64° SSW 23:41:21 23° SE
Cosmos 1908 3.1 23:37:10 10° NNW 23:40:59 78° W 23:42:29 36° S
STARLINK-1236 3.8 23:36:59 10° WNW 23:41:08 75° N 23:45:18 10° E
Cosmos 1025 Rocket 4.2 23:39:50 16° SW 23:42:49 35° WNW 23:46:49 10° N
Thor Agena Rocket 4.4 23:38:21 10° N 23:43:25 47° WNW 23:47:47 14° SW
Aureole 3 3.3 23:40:37 10° NNW 23:43:45 44° W 23:44:31 35° SW
STARLINK-1198 3.6 23:39:43 10° WNW 23:43:49 60° SSW 23:46:07 24° SE
Cosmos 1953 3.5 23:41:02 10° NNW 23:44:36 32° W 23:46:22 22° SW
STARLINK-1199 3.6 23:44:44 10° WNW 23:48:49 57° SSW 23:50:55 26° SE
Landsat 4 4.1 23:46:09 10° NNE 23:49:46 47° E 23:51:00 33° SSE
SL-4 R/B 2.5 23:50:08 20° W 23:50:08 20° W 23:51:35 10° NW
STARLINK-1269 3.7 23:46:57 10° WNW 23:51:08 78° NNE 23:55:17 10° E
Cosmos 1656 Rocket 4.2 23:46:09 12° SW 23:51:23 59° NW 23:56:54 10° NNE
STARLINK-1210 3.7 23:49:42 10° WNW 23:53:46 54° SSW 23:55:41 28° SE
KORONAS-FOTON 3.7 23:52:25 34° SSW 23:53:58 83° W 23:57:52 10° N
